Location: Newark
(44.1667°N, 8.2500°E)
Time: 01:38:01
(UTC+00:00)

S-56A Canister/Altair - Pass Details

Date: 13 December 2019
Orbit: 634 x 2498 km, 38.9° (Epoch: 19 January)

Event Time Altitude Azimuth Distance (km) Brightness Sun altitude
Rises 08:14:01 0° 224° (SW) 5,309 11.9 10.3°
Reaches altitude 10° 08:17:19 10° 219° (SW) 4,523 11.6 10.7°
Maximum altitude 08:29:45 49° 150° (SSE) 2,921 11.5 12.1°
Drops below altitude 10° 08:43:53 10° 82° (E) 5,114 12.2 13.7°
Sets 08:47:52 0° 78° (ENE) 6,032 12.4 14.1°
